This is the latest recevied weather packets stored in our database for station/object SP9MUF-14. If no packets are shown the sender has not sent any weather packets the latest 10 day(s).
| Time | Temp. | Humidity | Pressure | Rain* | Wind** | Luminosity | Snow |
|---|---|---|---|---|---|---|---|
| 1777552354 | 12.78° C | 29% | 1028.5 hPa | 0 mm | - | 588 W/m² | - |
| 1777552050 | 12.78° C | 28% | 1028.7 hPa | 0 mm | - | 562 W/m² | - |
| 1777551747 | 12.78° C | 30% | 1028.7 hPa | 0 mm | - | 609 W/m² | - |
| 1777551442 | 12.78° C | 28% | 1028.8 hPa | 0 mm | - | 628 W/m² | - |
| 1777551138 | 11.67° C | 29% | 1029.1 hPa | 0 mm | - | 638 W/m² | - |
| 1777550226 | 11.67° C | 31% | 1029.3 hPa | 0 mm | - | 697 W/m² | - |
| 1777549922 | 11.67° C | 31% | 1029.3 hPa | 0 mm | - | 683 W/m² | - |
| 1777549618 | 11.67° C | 31% | 1029.3 hPa | 0 mm | - | 639 W/m² | - |
| 1777548706 | 11.67° C | 30% | 1029.4 hPa | 0 mm | - | 689 W/m² | - |
| 1777548402 | 11.67° C | 32% | 1029.5 hPa | 0 mm | - | 684 W/m² | - |
| 1777548098 | 11.67° C | 33% | 1029.5 hPa | 0 mm | - | 681 W/m² | - |
| 1777547794 | 10.56° C | 31% | 1029.5 hPa | 0 mm | - | 677 W/m² | - |
| 1777547490 | 11.67° C | 31% | 1029.5 hPa | 0 mm | - | 684 W/m² | - |
| 1777547187 | 10.56° C | 33% | 1029.5 hPa | 0 mm | - | 689 W/m² | - |
| 1777546882 | 11.67° C | 32% | 1030.2 hPa | 0 mm | - | 705 W/m² | - |
| 1777546578 | 11.67° C | 31% | 1029.6 hPa | 0 mm | - | 711 W/m² | - |
| 1777545970 | 10.56° C | 33% | 1029.9 hPa | 0 mm | - | 696 W/m² | - |
| 1777545666 | 11.67° C | 31% | 1029.9 hPa | 0 mm | - | 708 W/m² | - |
| 1777545362 | 10.56° C | 33% | 1030 hPa | 0 mm | - | 695 W/m² | - |
| 1777545058 | 10.56° C | 32% | 1030.2 hPa | 0 mm | - | 692 W/m² | - |
| 1777544754 | 10.56° C | 33% | 1030.2 hPa | 0 mm | - | 688 W/m² | - |
| 1777544450 | 10° C | 34% | 1030.4 hPa | 0 mm | - | 695 W/m² | - |
| 1777543842 | 10° C | 34% | 1027.5 hPa | 0 mm | - | 715 W/m² | - |
| 1777543538 | 10° C | 36% | 1030.5 hPa | 0 mm | - | 565 W/m² | - |
| 1777543234 | 10° C | 36% | 1030.5 hPa | 0 mm | - | 783 W/m² | - |
* Rain latest hour (hover to see other rain measurements)
** Current wind speed in m/s (hover to see current wind gust speed)